sat.trackr.live / text

‹ back to catalog

CMS-03 (GSAT-7R)

NORAD 66311 · 2025-249B

PAYLOAD ACTIVE UNKNOWN

§ Identity

Operator
Country
IND
Launch date
2025-11-02
Launch site
SRILR
Launch vehicle
Mass (kg)
RCS (m²)

Purposes: comms

External: N2YO · Heavens-Above · Gunter

§ Orbital elements

Epoch: 2026-09-20T01:52:37.579872Z

Period
1,436.08 min
Inclination
0.0400°
Eccentricity
0.0000751
Mean motion
1.00272760 rev/d
Perigee alt
35,783.2 km
Apogee alt
35,789.5 km
Semi-major
42,164.5 km
B*
0.0000e+0
RAAN
264.4461°
Arg perigee
232.9136°
Mean anomaly
323.7594°
Rev number
330

§ Raw data

CMS-03 (GSAT-7R)1 66311U 25249B   26263.07821273 -.00000081  00000+0  00000+0 0  99962 66311   0.0400 264.4461 0000751 232.9136 323.7594  1.00272760  3303

JSON: /api/v1/satellites/66311 · /tle

For live sub-satellite position, see the globe view (requires WebGL).

§ Visibility from observer

Set your observer location to see the next 7 days of passes ≥ 10°. The values pass through the URL so the page stays shareable.

No JS? Fill the form by hand. The geolocation button needs JavaScript.